sat.trackr.live / text

‹ back to catalog

STARLINK-30980

NORAD 58476 · 2023-186D

PAYLOAD ACTIVE UNKNOWN

§ Identity

Operator
Country
US
Launch date
2023-12-03
Launch site
AFETR
Launch vehicle
Mass (kg)
RCS (m²)

Purposes: comms

External: N2YO · Heavens-Above · Gunter

§ Orbital elements

Epoch: 2026-05-24T22:19:39.541728Z

Period
94.27 min
Inclination
43.0038°
Eccentricity
0.0001930
Mean motion
15.27575891 rev/d
Perigee alt
481.7 km
Apogee alt
484.4 km
Semi-major
6,861.2 km
B*
4.6542e-5
RAAN
356.7082°
Arg perigee
268.2810°
Mean anomaly
91.7820°
Rev number
13,751

§ Raw data

STARLINK-309801 58476U 23186D   26144.93031877  .00001018  00000+0  46542-4 0  99992 58476  43.0038 356.7082 0001930 268.2810  91.7820 15.27575891137515

JSON: /api/v1/satellites/58476 · /tle

For live sub-satellite position, see the globe view (requires WebGL).

§ Visibility from observer

Set your observer location to see the next 7 days of passes ≥ 10°. The values pass through the URL so the page stays shareable.

No JS? Fill the form by hand. The geolocation button needs JavaScript.